www.pogodaiklimat.ru

Погода и климат >> Архив погоды >> Гана >> Тамале


ПОГОДА в Тамале

  • Прогноз погоды в Тамале
  • Монитор погоды в Тамале

АРХИВ ПОГОДЫ в Тамале

Время (UTC), дата Ветер
(напр.,м/с)
 
Видим.   Явления Облачность Т
(С)
Тd
(С)
f
(%)
Тe
(С)
Тes
(С)
Комфортность P
(гПа)
Po
(гПа)
Тmin
(С)
Tmax
(С)
R
(мм)
R24
(мм)
S
(см)
06 17.07 З 2 15 км {дождь} 9/3 330 м
[Sc Ac trans]
+25.0 +23.3 90 +33 +33 очень
душно
1014.6 994.7 +25.0 0.0
09 17.07 ЮЗ 3 18 км 6/3 400 м
[Cu med, cong Ac trans]
+28.0 +23.4 76 +38 +43 очень
душно
1015.4 995.7
12 17.07 ЮЗ 3 18 км 8/6 400 м
[Cu Sc Ac trans]
+30.2 +22.4 63 +39 +45 очень
душно
1014.8 995.2
15 17.07 ЮЗ 3 18 км 9/3 450 м
[Cu med, cong Ac trans]
+32.0 +22.6 58 +42 +45 опасность
перегрева
1012.0 992.6
18 17.07 ЮЗ 3 18 км 4/3 480 м
[Cu med, cong Ac trans]
+31.0 +22.2 60 +40 +40 очень
душно
1011.0 991.5 +32.5
00 18.07 Ю 1 16 км 6/3 400 м
[Sc Ac trans Ci sp]
+23.4 +23.0 98 +33 +33 очень
душно
1013.4 993.4
06 18.07 ЮЗ 1 8000 м дымка 8/4 360 м
[Sc Ac trans Ci sp]
+25.5 +23.4 88 +34 +34 очень
душно
1012.5 992.7 +25.5
09 18.07 ЮЗ 2 16 км 8/1 450 м
[Cu med, cong Cs]
+28.5 +23.4 74 +39 +48 очень
душно
1014.2 994.5
15 18.07 З 3 18 км 8/3 480 м
[Cu med, cong]
+33.0 +22.7 55 +43 +47 опасность
перегрева
1009.6 990.3
18 18.07 16 км 9/4 400 м
[Sc Ac trans]
+31.0 +22.9 62 1011.2 991.7 +33.0
21 18.07 СВ 4 16 км гроза, ливневой дождь 9/3 300 м
[Cb cap Ac trans]
+22.6 +20.7 89 +29 +29 очень
душно
1012.3 992.3
06 19.07 штиль 0 16 км 9/6 360 м
[Sc Ac trans]
+22.9 +21.5 92 +31 +31 очень
душно
1013.1 993.1 +22.9 3
09 19.07 ЮЗ 2 18 км 9/9 330 м
[Sc]
+25.0 +21.8 82 +32 +33 очень
душно
1014.8 994.9
12 19.07 ЮЗ 3 18 км 9/6 360 м
[Cu Sc Ac trans]
+28.0 +22.7 73 +37 +41 очень
душно
1014.7 995.0
15 19.07 ЮЗ 4 18 км 9/6 360 м
[Cu Sc Ac trans Ci sp]
+31.5 +21.8 56 +40 +42 очень
душно
1011.7 992.3
21 19.07 В 3 18 км 9/6 360 м
[Sc Cs]
+28.0 +23.4 76 +38 +38 очень
душно
1012.9 993.2
00 20.07 ЮВ 2 16 км 9/9 360 м
[Sc]
+27.2 +23.8 82 +37 +37 очень
душно
1013.8 994.0
06 20.07 Ю 1 16 км 9/5 360 м
[Sc Ac trans]
+25.0 +23.3 90 +33 +33 очень
душно
1014.0 994.1 +25.0
09 20.07 ЮЗ 4 18 км 9/6 330 м
[Cu Sc Ac trans]
+27.5 +22.9 76 +37 +38 очень
душно
1015.3 995.5
15 20.07 Ю 5 2000 м гроза, ливневой дождь 10/8 300 м
[Cb cap As op]
+22.7 +21.0 90 +30 +30 очень
душно
1011.9 991.9
18 20.07 СЗ 3 12 км пыльная буря на расстоянии {гроза, дождь} 9/5 330 м
[Cb cap Ac trans Cs]
+24.7 +22.9 90 +33 +33 очень
душно
1011.2 991.3 +33.3 77
21 20.07 СЗ 3 12 км зарница 9/5 330 м
[Cb cap Ac trans]
+25.1 +23.4 90 +34 +34 очень
душно
1014.1 994.2
00 21.07 С 5 8000 м гроза, ливневой дождь 9/9 300 м
[Cb cap]
+24.1 +23.1 94 +32 +32 очень
душно
1014.5 994.5 2
03 21.07 ЮВ 6 8000 м гроза, ливневой дождь 9/9 300 м
[Cb cap]
+23.7 +22.6 94 +31 +31 очень
душно
1012.9 992.9
09 21.07 ЮЗ 3 16 км {дождь} 6/1 360 м
[Sc Ac trans]
+25.3 +22.9 87 +34 +40 очень
душно
1014.3 994.4
12 21.07 ЮЗ 1 18 км {дождь} 8/6 360 м
[Cu Sc Ac trans]
+29.2 +22.4 67 +38 +45 очень
душно
1013.3 993.7 0.0
15 21.07 ЮЗ 2 18 км 8/6 360 м
[Cu Sc Ac trans]
+30.6 +22.9 64 +41 +44 опасность
перегрева
1010.3 990.8
18 21.07 Ю 1 18 км 4/3 360 м
[Cu Sc Ac trans]
+29.0 +21.9 66 +37 +38 очень
душно
1010.1 990.5 +31.3 0.0
21 21.07 Ю 1 16 км 3/0
[Ci sp]
+26.5 +23.4 83 +36 +36 очень
душно
1012.2 992.4
00 22.07 Ю 1 16 км 3/0
[Ci sp]
+25.5 +23.1 87 +34 +34 очень
душно
1012.5 992.7
03 22.07 Ю 1 16 км 3/0
[Ci sp]
+24.5 +22.1 86 +32 +32 очень
душно
1012.0 992.1
06 22.07 ЮВ 1 18 км 8/6 300 м
[Sc Ac trans]
+24.5 +22.8 90 +32 +32 очень
душно
1013.3 993.4 +24.2
09 22.07 ЮЗ 3 8000 м слаб. дождь 9/9 300 м
[Sc]
+25.6 +23.6 89 +35 +36 очень
душно
1014.8 994.9
12 22.07 ЮЗ 3 10 км в посл. час дождь 9/6 330 м
[Sc Ac trans]
+27.5 +24.4 83 +39 +42 очень
душно
1014.5 994.7 4
15 22.07 ЮЗ 3 12 км {дождь} 8/5 360 м
[Cb cap Ac trans]
+29.0 +23.0 70 +39 +42 очень
душно
1011.7 992.1
18 22.07 Ю 3 12 км {дождь} 6/1 300 м
[Cb cap Ac trans]
+29.5 +23.6 71 +40 +40 очень
душно
1011.0 991.4 +29.5 6
21 22.07 ЮЗ 1 12 км 4/3 400 м
[Sc Ac trans]
+26.7 +23.3 82 +36 +36 очень
душно
1012.0 992.2
00 23.07 ЮЗ 2 12 км 4/3 400 м
[Sc Ac trans]
+25.5 +23.2 87 +34 +34 очень
душно
1011.6 991.8
09 23.07 З 5 16 км 9/9 240 м
[Cb cap]
+26.0 +23.0 84 +35 +35 очень
душно
1014.5 994.6
12 23.07 Ю 4 18 км {дождь} 9/6 300 м
[Cu Sc Ac As]
+26.6 +23.8 85 +37 +40 очень
душно
1013.8 994.0 0.7
15 23.07 ЮЗ 4 18 км 9/4 360 м
[Cb cap Ac trans Cs]
+28.9 +23.0 71 +39 +41 очень
душно
1010.5 990.9
18 23.07 В 4 8000 м слаб. дождь 9/8 300 м
[Cb cap Ac As]
+25.9 +23.0 84 +35 +35 очень
душно
1011.1 991.3 +29.2 3
21 23.07 Ю 3 8000 м слаб. дождь 9/9 270 м
[Sc]
+24.4 +23.0 92 +32 +32 очень
душно
1012.0 992.1
03 24.07 СЗ 3 12 км {дождь} 9/5 270 м
[Sc Ac As]
+23.9 +22.5 92 +31 +31 очень
душно
1012.3 992.4

 

Местоположение метеостанции Тамале (Гана): широта 9.50 долгота -0.85 высота над уровнем моря 173 м.

В архиве по умолчанию представлена погода в Тамале за последнюю неделю. Архивные данные за месяц целиком и за предыдущие месяцы, начиная с января 2011 года, Вы можете получить, выбрав интересующий диапазон дат из раскрывающегося списка и нажав кнопку "Ввод!".


*Определитесь, кто Вы:
робот инопланетянин человек

Внимание! Время в таблицах - всемирное. Для получения местного времени необходимо прибавить поправку, которая равна 1 ч.

Смотрите также архив погоды в соседних городах и на ближайших метеорологических станциях:

Погода в Йенди (Гана) (91 км)
Погода в Навронго (Гана) (158 км)
Погода в Манго (Того) (174 км)
Погода в Боле (Гана) (186 км)
Погода в По (Буркина-Фасо) (186 км)
Погода в Ва (Гана) (191 км)
Погода в Дапаоне (Того) (201 км)
Погода в Кет-Крачи (Гана) (207 км)
Погода в Ньамтугу (Того) (216 км)
Погода в Каре (Того) (222 км)

Пояснения к столбцам:

Ветер - указаны скорость ветра в м/с - средняя за 10 мин, порывы в срок и между сроками (в фигурных скобках) и направление, откуда дует ветер: С - северный, СВ - северо-восточный, В - восточный, ЮВ - юго-восточный, Ю - южный, ЮЗ - юго-западный, З - западный, СЗ - северо-западный.
Видимость - горизонтальная дальность видимости в метрах или километрах. При видимости от 1 до 10 км при отсутствии осадков обычно наблюдается дымка, при ухудшении видимости до 1 км и менее - туман. В сухую погоду видимость может ухудшаться дымом, пылью или мглою.
Явления - указаны атмосферные явления, наблюдавшиеся в срок или в последний час перед сроком; фигурными скобками обозначены явления, наблюдавшиеся между сроками (за 1-3 часа до срока); квадратными скобками обозначены град или гололедные отложения с указанием их диаметра в мм.
Облачность - указаны через наклонную черту общая и нижняя облачность в баллах и высота нижней границы облаков в метрах; квадратными скобками обозначены формы облаков: Ci - перистые, Cs - перисто-слоистые, Cc - перисто-кучевые, Ac - высококучевые, As - высокослоистые, Sc - слоисто-кучевые, Ns - слоисто-дождевые, Cu - кучевые, Cb - кучево-дождевые. Подробнее классификацию облаков см. в Атласе облаков (PDF).
T - Температура воздуха - температура, измеренная на высоте 2 м над землей.
Td - Температура точки росы - температура, при понижении до которой содержащийся в воздухе водяной пар достигнет насыщения.
f - Относительная влажность воздуха - влажноcть воздуха, измеренная на высоте 2 м над землей.
Te - Эффективная температура - температура, которую ощущает одетый по сезону человек в тени. Характеристика душности погоды. При расчете учитывается влияние влажности воздуха и скорости ветра на теплоощущения человека.
Tes - Эффективная температура на солнце - температура, которую ощущает человек, с поправкой на солнечный нагрев. Характеристика знойности погоды. Зависит от высоты солнца над горизонтом, облачности и скорости ветра. Ночью, в пасмурную погоду, а также при ветре 12 м/с и более поправка равна нулю.
P - Атмосферное давление - приведенное к уровню моря атмосферное давление.
Po - Атмосферное давление - измеренное на уровне метеостанции атмосферное давление.
Tmin - Минимальная температура - минимум температуры воздуха на высоте 2 м над землей.
Tmax - Максимальная температура - максимум температуры воздуха на высоте 2 м над землей.
R - Количество осадков - Количество выпавших осадков за период времени, мм. При наведении курсора мыши на число - период времени, за который выпало указанное количество осадков.
R24 - Количество осадков - Количество выпавших осадков за 24 часа, мм.
S - Снежный покров - Высота снежного покрова, см. При наведении курсора мыши на число - состояние снежного покрова и степень покрытия местности в баллах.